Scott AFB/Midamerica Airport
KBLV : now visible

Airfield :











YOU CAN JOIN US ON...

 
LOGIN :

Register | Disclaimer

   EN    FR    IT 

 









Legend :    VFR   Marginal VFR   IFR   Intensive IFR   Very Intensive IFR
Visi :
Ceiling :
>= 8 km
>= 3000ft
5 to 8 km
1000 to 3000 ft
1500m to 5 km
500 to 1000 ft
800 to 1500m
200 to 500 ft
< 800m
< 200 ft
Symbols :   Thunderstorms  Fog  Heavy snow  Heavy precipitations  Wind > 20 kt






- Airport Elevation : 459 ft


KBLV - Scott AFB/Midamerica

CURRENT METAR :
  • 231456Z AUTO 20005KT 10SM BKN200 08/M01 A3008 RMK AO2 SLP192 T00801010 58000 $

EXPIRED METARs :
  • 231356Z AUTO 19004KT 10SM CLR 05/M01 A3009 RMK AO2 SLP195 T00521013 $
  • 231156Z AUTO 00000KT 10SM CLR 03/M02 A3009 RMK AO2 SLP195 T00281021 10041 20027 57006 $

TAF TAF KBLV
Valid from the 23 at 08:00 until the 24 at 14:00 UTC


230800Z 2308/2414 19006KT 9999 BKN050 QNH3008INS
BECMG 2312/2313 19006KT 9999 FEW040 QNH3007INS
BECMG 2402/2403 18006KT 9999 BKN010 QNH2993INS
BECMG 2408/2409 13006KT 8000 -RA OVC006 QNH2979INS TX14/2321Z TN02/2313Z



MET'MAP, your aeronautical weather chart ! - Copyright ORBIFLY December 2007 - Disclaimer

ORBIFLY MET'MAP TEAM :

Programming & Development : Alexandra Zaïnal
Concept & original design : Baudouin d'Aumeries
Assistance for programming : Marc-Olivier Méhu
Technical & hardware support : Manuel Goepfert

Contact : metmap@orbifly.com




SOURCES & CREDITS :

   NOAA       Earth
Advisory